CWSW

Sparwood / Elk Valley  Airport

Sparwood/Elk Valley, Canada
Issued Wind Visibility Ceiling Temperature Dew Point Humidity Barometer
Nov-20
00:00 UTC
180°
9 KTS
Gust 25 KTS
13 miles Overcast
7,000' AGL
C
37° F
-7° C
19° F
48% 29.72" Hg
1009.5 hPa
VFR
Nov-19
23:00 UTC
170°
11 KTS
Gust 24 KTS
13 miles Overcast
5,000' AGL
C
37° F
-7° C
19° F
48% 29.74" Hg
1010.4 hPa
VFR
Nov-19
22:00 UTC
170°
9 KTS
Gust 21 KTS
15 miles Overcast
7,000' AGL
C
37° F
-6° C
21° F
52% 29.76" Hg
1011.1 hPa
VFR
Nov-19
21:00 UTC
170°
14 KTS
Gust 23 KTS
15 miles Overcast
8,500' AGL
C
37° F
-7° C
19° F
48% 29.8" Hg
1012.4 hPa
VFR
Nov-19
20:00 UTC
170°
9 KTS
Gust 27 KTS
15 miles Overcast
7,000' AGL
C
37° F
-6° C
21° F
52% 29.85" Hg
1014 hPa
VFR
Nov-19
19:00 UTC
170°
11 KTS
Gust 21 KTS
15 miles Broken
5,000' AGL
C
36° F
-6° C
21° F
56% 29.89" Hg
1015.5 hPa
VFR
Nov-19
18:00 UTC
150°
11 KTS
Gust 21 KTS
15 miles Broken
6,000' AGL
C
36° F
-6° C
21° F
56% 29.92" Hg
1016.8 hPa
VFR
Nov-19
17:00 UTC
150°
8 KTS
Gust 26 KTS
20 miles Broken
5,500' AGL
C
34° F
-6° C
21° F
60% 29.95" Hg
1017.8 hPa
VFR
Nov-19
16:00 UTC
140°
10 KTS
Gust 17 KTS
15 miles Broken
4,400' AGL
C
34° F
-6° C
21° F
60% 29.95" Hg
1017.9 hPa
VFR
Nov-19
15:00 UTC
150°
11 KTS
Gust 16 KTS
20 miles Broken
4,500' AGL
C
32° F
-6° C
21° F
64% 29.97" Hg
1018.6 hPa
VFR
Nov-19
14:00 UTC
140°
5 KTS
20 miles Broken
11,000' AGL
C
34° F
-5° C
23° F
65% 29.98" Hg
1018.8 hPa
VFR